Regional Weather Roundup
Issued by NWS

Home | Current Version | Previous Version | Text Only | Print | Product List | Glossary On
Versions: 1 2 3 4 5 6 7 8 9 10 11 12 13 14 15 16 17 18 19 20 21 22 23 24 25 26 27 28 29 30 31 32 33 34 35 36 37 38 39 40 41 42 43 44 45 46 47 48 49 50
000
ASUS43 KMPX 242010
RWRMN
WEATHER ROUNDUP FOR MINNESOTA
NATIONAL WEATHER SERVICE TWIN CITIES/CHANHASSEN MN
200 PM CST MON NOV 24 2014


NOTE: "FAIR" INDICATES FEW OR NO CLOUDS BELOW 12,000 FEET WITH NO
SIGNIFICANT WEATHER AND/OR OBSTRUCTIONS TO VISIBILITY. N/A MEANS
CURRENT SKY AND/OR WEATHER CONDITIONS ARE NOT AVAILABLE.

MNZ060>063-068>070-242100-
   Twin Cities Metro

CITY           SKY/WX    TMP DP  RH WIND       PRES   REMARKS
TWIN CITIES    CLOUDY    20  13  74 NW26      29.52R WCI   2
ST PAUL        CLOUDY    21  15  78 W22G30    29.52R WCI   5
CRYSTAL        CLOUDY    21  13  71 NW23G30   29.52R WCI   5
BLAINE         CLOUDY    23  18  80 NW14G29   29.50R WCI  11
LAKEVILLE      CLOUDY    18  14  86 W17       29.52R WCI   2
EDEN PRAIRIE   CLOUDY    20  12  71 W21G30    29.54R WCI   4
SOUTH ST PAUL  CLOUDY    22  15  75 NW17G23   29.51R WCI   8
LAKE ELMO      CLOUDY    23  18  80 NW12G18   29.49R WCI  12
$$
MNZ001>005-007-008-013>017-022>024-027-028-242100-
   Northwest Minnesota

CITY           SKY/WX    TMP DP  RH WIND       PRES   REMARKS
BEMIDJI        FLURRIES  12   7  80 NW16G24   29.65R WCI  -5
HALLOCK        MOSUNNY   14   9  79 N24G30    29.83R WCI  -5
ROSEAU         SUNNY     18  10  73 N18       29.75R WCI   2
WARROAD        FLURRIES  14   9  79 NW10G20   29.74R WCI   1
THIEF RVR FALL MOSUNNY   12   9  85 NW21      29.75R WCI  -6
CROOKSTON      FLURRIES  14  10  85 N25       29.80R WCI  -5
FOSSTON        LGT SNOW  10   5  79 N17       29.73R WCI  -7
DETROIT LAKES  LGT SNOW  12   9  85 NW20G28   29.71R WCI  -6
MOORHEAD       FLURRIES  14  10  85 N20       29.79R WCI  -3
PARK RAPIDS    FLURRIES  12   5  73 NW20G28   29.62R WCI  -6
$$
MNZ006-009>011-018-025>026-242100-
   North Central Minnesota

CITY           SKY/WX    TMP DP  RH WIND       PRES   REMARKS
BAUDETTE       LGT SNOW  13   8  81 NW24G30   29.67R WCI  -7
FLAG ISLAND    LGT SNOW  12   9  85 NW21G26   29.72R WCI  -6
INTL FALLS     FLURRIES  17  10  74 N15       29.60R WCI   2
WASKISH        LGT SNOW  16  10  79 NW10      29.66R WCI   3
BIG FORK       LGT SNOW  16  10  79 NW8G17    29.58R WCI   5
LONGVILLE      FLURRIES  12   9  85 NW8G20    29.58R WCI   1
GRAND RAPIDS   CLOUDY    16  10  79 NW21G26   29.52R WCI  -2
CRANE LAKE     FLURRIES  16  10  79 NW13G22   29.56R WCI   2
ORR            FLURRIES  16   9  73 NW9G20    29.51R WCI   4
COOK           FLURRIES  18  12  79 NW9       29.51R WCI   6
$$
MNZ012-019>021-037-242100-
   Northeast Minnesota

CITY           SKY/WX    TMP DP  RH WIND       PRES   REMARKS
DULUTH         LGT SNOW  21  16  81 NW24G36   29.39R BLWGSNOWWCI   4
ELY            LGT SNOW  18  12  79 N12G20    29.45R WCI   5
HIBBING        FLURRIES  19  11  70 N22G32    29.49R WCI   2
EVELETH        LGT SNOW  19  14  79 NW12G22   29.48R WCI   7
DULUTH HARBOR  CLOUDY    27  19  74 N20G29    29.46R WCI  13
TWO HARBORS    CLOUDY    25  18  74 NW12G20   29.38R WCI  14
SILVER BAY     CLOUDY    25  16  68 NW12G23   29.37R WCI  14
GRAND MARAIS     N/A     22  14  71 S9        29.37R WCI  12
G MARAIS ARPRT LGT SNOW  16   9  73 NW24G31   29.28R WCI  -3
$$
MNZ029>031-032-039>041-046>048-054>057-064-242100-
   West Central Minnesota

CITY           SKY/WX    TMP DP  RH WIND       PRES   REMARKS
FERGUS FALLS   CLOUDY    10   1  67 N23G31    29.76R WCI -10
WHEATON        FLURRIES  12   7  79 NW21G31   29.78R WCI  -6
MORRIS           N/A     10   7  85 NW26G38   29.70R HAZE    WCI -11
ALEXANDRIA     CLOUDY    11   4  73 NW25      29.63R WCI -10
ELBOW LAKE       N/A      8   3  78 NW24G37   29.71R WCI -13
WADENA         CLOUDY    10   5  79 NW22G28   29.64R WCI  -9
GLENWOOD       PTSUNNY   10   7  85 NW24G30   29.63R WCI -10
APPLETON       CLOUDY    14   7  73 NW29G35   29.74R WCI  -7
BENSON         LGT SNOW  10   7  85 N23G32    29.69R WCI -10
ORTONVILLE     FLURRIES  16   9  73 NW21G32   29.74R WCI  -2
MADISON        MOSUNNY   19  12  73 NW23G33   29.74R WCI   2
WILLMAR        CLOUDY    12   7  79 NW29      29.65R HAZE    WCI  -9
$$
MNZ033>034-036-042>043-049>051-058-059-242100-
   Central Minnesota

CITY           SKY/WX    TMP DP  RH WIND       PRES   REMARKS
ST CLOUD       CLOUDY    18  10  71 NW18G30   29.56R WCI   2
SAUK CENTRE    FLURRIES  12   6  77 NW23      29.62R WCI  -7
PAYNESVILLE    FLURRIES  12   7  81 W16G25    29.61R WCI  -5
AITKIN         MIX PCPN  19  12  73 NW13G18   29.52R WCI   7
PINE RIVER     FLURRIES  16   9  73 NW16G25   29.63R WCI   0
BRAINERD       FLURRIES  16   9  74 NW26G33   29.57R WCI  -3
STAPLES        CLOUDY    12   7  79 NW20G25   29.61R WCI  -6
LONG PRAIRIE   CLOUDY    12   5  73 W20G26    29.61R WCI  -6
LITTLE FALLS   PTSUNNY   18   9  68 NW10G22   29.58R WCI   6
LITCHFIELD     CLOUDY    16  10  79 NW17G29   29.60R WCI   0
BUFFALO        CLOUDY    18  11  74 W18       29.57R WCI   3
MAPLE LAKE     FLURRIES  19  13  79 W17G23    29.57R WCI   3
$$
MNZ037-044-045-052-053-242100-
   East Central Minnesota

CITY           SKY/WX    TMP DP  RH WIND       PRES   REMARKS
PRINCETON      LGT SNOW  19  16  86 W15G23    29.52R WCI   5
MORA           FLURRIES  21  14  73 NW17      29.51R WCI   7
CAMBRIDGE      LGT SNOW  23  14  68 NW14G25   29.49R VSB 1   WCI  11
RUSH CITY      CLOUDY    21  17  83 NW13G23   29.49R HAZE    WCI   9
MOOSE LAKE     CLOUDY    23  16  74 N16G22    29.45R WCI  10
HINCKLEY       CLOUDY    23  18  80 NW15G21   29.47R WCI  10
CLOQUET        CLOUDY    21  16  79 NW23G32   29.43R WCI   5
MCGREGOR       CLOUDY    21  14  73 NW17G32   29.50R WCI   7
$$
MNZ071>073-080-081-089-090-097-098-242100-
   Southwest Minnesota

CITY           SKY/WX    TMP DP  RH WIND       PRES   REMARKS
MONTEVIDEO     CLOUDY    12   9  85 N20G31    29.72R WCI  -6
GRANITE FALLS  FLURRIES  13   8  78 NW25G31   29.72R WCI  -7
CANBY          CLOUDY    18  11  74 NW16G31   29.75R WCI   3
MARSHALL       CLOUDY    16   7  67 NW29G37   29.70R WCI  -4
REDWOOD FALLS  LGT SNOW  14   7  73 NW20G36   29.67R WCI  -3
OLIVIA         LGT SNOW  16  10  79 NW25G38   29.64R WCI  -3
PIPESTONE      FLURRIES  18  10  73 NW25G37   29.70R WCI  -1
WINDOM         FLURRIES  18  10  73 NW28G38   29.64R WCI  -1
WORTHINGTON    CLOUDY    19  10  68 NW26      29.67R WCI   1
JACKSON        CLOUDY    21  14  73 NW23      29.63R WCI   5
TRACY          CLOUDY    17  10  76 NW26G35   29.69R WCI  -2
SLAYTON        CLOUDY    18  11  75 NW29G37   29.67R WCI  -2
$$
MNZ065>067-074>077-082>085-091>093-242100-
   South Central Minnesota

CITY           SKY/WX    TMP DP  RH WIND       PRES   REMARKS
MANKATO        CLOUDY    16   9  73 NW25G31   29.59R WCI  -3
NEW ULM        LGT SNOW  16  12  86 NW25G33   29.62R WCI  -3
ST JAMES       CLOUDY    19  12  73 NW32G38   29.63R WCI   0
FAIRMONT       CLOUDY    19  10  68 W29G38    29.60R WCI   1
GLENCOE        LGT SNOW  18  14  82 NW24G31   29.58R WCI   1
FARIBAULT      FLURRIES  19  16  86 W12G18    29.54R WCI   7
OWATONNA       LGT SNOW  18  14  86 W22G31    29.54R WCI   0
WASECA         LGT SNOW  18  10  73 W24G33    29.57R WCI   0
ALBERT LEA     CLOUDY    18  16  93 NW16G29   29.53R WCI   3
$$
MNZ078>079-086>088-094>096-242100-
   Southeast Minnesota

CITY           SKY/WX    TMP DP  RH WIND       PRES   REMARKS
ROCHESTER      CLOUDY    21  16  81 NW20      29.46R WCI   6
RED WING       CLOUDY    25  18  74 NW10G24   29.47R WCI  15
STANTON        CLOUDY    21  15  78 NW21      29.51R WCI   6
DODGE CENTER   CLOUDY    19  16  86 NW22G33   29.48R WCI   3
WINONA         CLOUDY    28  23  80 W20G29    29.45R WCI  15
AUSTIN         CLOUDY    18  12  79 W25G32    29.52R HAZE    WCI  -1
PRESTON        CLOUDY    19  16  86 W24G31    29.47R WCI   2
$$
ABBREVIATIONS USED IN REMARKS
   TC - TEMPERATURES IN CELSIUS
  WCI - WIND CHILL INDEX
   HX - HEAT INDEX
  VSB - VISIBILITY
$$


USA.gov is the U.S. government's official web portal to all federal, state and local government web resources and services.